Location: Charlotte
(35.2270°N, 80.8430°W)
Time: 03:21:06
(UTC-05:00)

Daily predictions for brighter satellites

Satellite Brightness Start Highest point End
(mag) Time Altitude Azimuth Time Altitude Azimuth Time Altitude Azimuth
NOSS 3-4 (A) 4.5 04:09:36 50° ENE 04:09:36 50° ENE 04:16:36 10° SE
Lacrosse 5 rocket 4.2 04:25:25 15° ENE 04:25:25 15° ENE 04:27:00 10° ENE
SJ 16-02 3.9 04:24:46 17° ENE 04:24:46 17° ENE 04:27:26 10° ESE
Cosmos 2082 Rocket 2.7 04:49:09 51° NNE 04:49:09 51° NNE 04:53:22 10° NNE
Milstar 3 Cent rocket 3.9 04:48:58 39° SW 04:50:42 42° S 05:03:45 10° SE
Cosmos 1697 Rocket 3.8 04:50:51 28° NNE 04:53:00 39° ENE 04:58:12 10° SE
Cosmos 1833 Rocket 3.2 05:02:21 45° N 05:02:21 45° N 05:06:12 10° NNE
Cosmos 1241 Rocket 4.3 05:03:39 67° NNW 05:04:34 90° ENE 05:10:47 10° SSE
Cosmos 1634 Rocket 3.9 05:07:45 59° NW 05:08:51 72° W 05:15:09 10° S
IDEFIX/ARIANE 42P 4.0 05:07:14 10° NNE 05:12:04 38° E 05:16:54 10° SSE
CZ-2C R/B 3.6 05:12:28 10° SSE 05:16:53 80° ENE 05:17:18 70° NNE
Tiangong 2 3.2 05:23:00 22° SSE 05:23:00 22° SSE 05:24:27 10° SE
Cosmos 1536 4.0 05:19:30 10° SSE 05:23:20 43° E 05:27:11 10° NNE
Cosmos 783 Rocket 4.4 05:18:16 10° SSW 05:23:32 90° SE 05:28:52 10° NNE
USA 234 3.4 05:17:59 10° SE 05:24:29 72° NE 05:27:59 30° NNW
SL-24 R/B - RUBIN 2 3.3 05:24:37 82° WNW 05:24:45 85° WSW 05:29:02 10° SSE
Feng Yun 1-1 Rocket 4.3 05:24:15 10° NNE 05:30:06 83° ESE 05:35:47 10° SSW
Meteor 1-11 Rocket 3.9 05:24:13 10° S 05:30:10 80° E 05:36:05 10° N
Cosmos 1980 Rocket 3.0 05:27:02 13° N 05:31:58 48° ENE 05:37:24 10° SE
Cosmos 1125 Rocket 3.3 05:30:39 43° NNW 05:32:21 73° WSW 05:37:30 10° S
Cosmos 2084 4.2 05:34:28 33° SSW 05:34:28 33° SSW 05:37:08 10° S
Cosmos 44 Rocket 4.0 05:37:25 33° NNW 05:37:25 33° NNW 05:40:36 10° NNE
SKYMED 2 3.8 05:31:59 10° SSE 05:36:16 69° ENE 05:39:46 15° N
Meteor 2-4 Rocket 3.8 05:38:13 10° N 05:43:39 72° E 05:49:10 10° SSE
CZ-4C R/B 2.4 05:44:28 10° SSW 05:49:26 67° ESE 05:55:03 10° NE
Meteosat 1 Rocket2 4.4 05:51:59 18° SW 05:53:16 21° SSW 05:56:08 10° SE
Cosmos 1975 Rocket 4.4 05:56:05 22° WSW 05:56:05 22° WSW 05:58:26 10° SW
RESURS DK-1 3.2 05:52:22 13° N 05:55:50 50° ENE 05:59:51 10° SE
Cosmos 2151 Rocket 3.6 05:53:06 10° SSW 05:57:22 53° W 06:01:41 10° N
Cosmos 1538 Rocket 4.1 05:52:40 10° SSW 05:57:51 80° ESE 06:03:07 10° NNE
Meteor 1-19 Rocket 4.4 05:53:31 10° NNW 05:59:15 56° W 06:04:58 10° S
OAO 2 Rocket 3.5 05:57:57 27° W 06:00:44 66° SSW 06:05:52 10° ESE
Cosmos 1092 Rocket 4.2 05:55:18 10° S 06:01:24 74° E 06:07:31 10° N
CZ-4 R/B 4.4 05:59:21 10° NE 06:02:24 19° E 06:05:27 10° SE
SJ 16-02 1.9 06:01:51 29° WNW 06:03:11 35° W 06:07:13 10° SSW
Lacrosse 5 rocket 1.5 06:01:08 26° NW 06:03:43 77° SW 06:08:11 10° SSE
Cosmos 2360 4.2 05:58:55 10° NNW 06:04:41 86° ENE 06:10:24 10° SSE
SJ-12 4.2 06:02:20 10° NNE 06:06:23 68° E 06:10:25 10° S
SL-16 R/B 3.9 06:01:28 10° N 06:06:28 31° ENE 06:11:27 10° ESE
CZ-2C R/B 2.2 06:02:22 10° N 06:07:15 81° WNW 06:11:57 10° SSW
Meteor 2-20 Rocket 4.4 06:03:34 10° SSW 06:09:37 64° W 06:15:41 10° N
GEOS 3 Rocket 3.6 06:05:05 10° NNE 06:10:27 70° NW 06:15:45 10° SW
EO 1 Del DPAF 3.5 06:08:15 10° S 06:11:55 45° W 06:14:54 15° NNW
Okean-O 3.2 06:10:10 10° N 06:14:09 33° WNW 06:18:06 10° SW
Cosmos 1300 Rocket 3.5 06:10:27 10° SSW 06:14:39 55° W 06:18:54 10° N
Cosmos 2322 Rocket 3.6 06:09:48 10° N 06:14:59 36° ENE 06:20:10 10° SE
Okean 2 4.4 06:13:28 10° N 06:17:27 48° E 06:21:24 10° SSE
Meteor 1-5 Rocket 4.2 06:13:24 10° SSW 06:18:51 57° W 06:24:10 10° N
Cosmos 1536 Rocket 3.8 06:18:41 10° NNW 06:22:48 44° W 06:26:56 10° SSW
COSMO-SKYMED 1 3.4 06:20:32 10° SSW 06:24:23 31° W 06:28:14 10° NW
Cosmos 1437 Rocket 3.4 06:20:52 10° SW 06:24:30 34° WNW 06:28:07 10° NNW
CSL-04 Rocket 4.2 06:25:20 10° NNE 06:30:53 67° ESE 06:36:22 10° S
Cosmos 2082 Rocket 3.7 06:31:09 13° WNW 06:32:22 14° NW 06:35:17 10° NNW
Cosmos 1025 Rocket 3.1 06:30:03 10° N 06:34:20 81° E 06:38:36 10° S
Cosmos 1697 Rocket 3.8 06:32:38 11° NW 06:36:40 24° WSW 06:41:02 10° SSW
Cosmos 1975 3.5 06:33:45 10° S 06:37:39 59° E 06:41:35 10° NNE
MSX 3.9 06:32:45 10° N 06:38:21 53° WNW 06:43:52 10° SSW
APEX 4.1 06:38:58 10° S 06:41:50 44° ESE 06:45:17 10° NE
Okean 1 Rocket 3.4 06:38:25 10° SSW 06:42:33 43° W 06:46:45 10° N
Meteor 1-23 Rocket 4.4 06:37:52 10° NNW 06:43:13 48° W 06:48:29 10° SSW
Cosmos 1833 Rocket 4.5 06:45:19 10° NW 06:45:24 10° NW 06:45:29 10° NW
Cosmos 1500 3.5 06:45:53 10° SSW 06:49:35 45° W 06:53:18 10° N
Cosmos 389 Rocket 4.0 06:47:02 10° SSE 06:50:29 42° E 06:53:56 10° NNE
IDEFIX/ARIANE 42P 3.6 06:47:26 10° NNW 06:51:23 22° WNW 06:55:21 10° WSW
CZ-3A R/B 4.0 06:55:57 10° WSW 06:59:56 18° SSW 07:02:01 10° SSE
